Location: Cisewo
(53.3833°N, 14.9000°E)
Time: 06:37:55
(UTC+00:00)

POLYITAN 1 - Pass Details

Date: 27 September 2021
Orbit: 589 x 610 km, 97.9° (Epoch: 18 October)

Event Time Altitude Azimuth Distance (km) Brightness Sun altitude
Rises 00:12:39 0° 18° (NNE) 2,863 ? -35.6°
Reaches altitude 10° 00:14:54 10° 24° (NNE) 1,951 ? -35.5°
Enters shadow 00:16:05 18° 30° (NNE) 1,497 ? -35.4°
